Regional Weather Roundup
Issued by NWS

Home | Current Version | Previous Version | Graphics & Text | Print | Product List | Glossary On
Versions: 1 2 3 4 5 6 7 8 9 10 11 12 13 14 15 16 17 18 19 20 21 22 23 24 25 26 27 28 29 30 31 32 33 34 35 36 37 38 39 40 41 42 43 44 45 46 47 48 49 50
000
ASUS45 KABQ 251001
RWRNM
NEW MEXICO REGIONAL WEATHER ROUNDUP
NATIONAL WEATHER SERVICE ALBUQUERQUE NM
400 AM MDT THU MAY 25 2017

NOTE: "FAIR" MEANS FEW OR NO CLOUDS BELOW 12,000 FEET AGL WITH NO
       SIGNIFICANT WEATHER OR OBSTRUCTIONS TO VISION.

      THIS PRODUCT IS RELEASED AS TWO VERSIONS.  ONE VERSION NEAR
      THE TOP OF THE HOUR CONTAINING PRELIMINARY DATA FROM ALBUQUERQUE
      AND OTHER STATIONS.  A FINAL VERSION WITH ADDITIONAL DATA IS
      ISSUED ABOUT 10 MINUTES AFTER THE HOUR.

NMZ501-503-504-510>518-251100-
NORTHWEST PLATEAU/NORTHCENTRAL MOUNTAINS

CITY           SKY/WX    TMP DP  RH WIND       PRES   REMARKS
FARMINGTON     FAIR      65  27  23 S6        29.75S
LOS ALAMOS     FAIR      65  21  18 W18G36    29.90S
SANTA FE       FAIR      59  24  26 CALM      29.84S
TAOS           FAIR      46  21  36 NE6       29.89S

$$
NMZ402-403-502-505>509-251100-
WESTCENTRAL MOUNTAINS/SOUTHWEST MOUNTAINS

CITY           SKY/WX    TMP DP  RH WIND       PRES   REMARKS
GALLUP         FAIR      54  24  31 SW7       29.90S
SILVER CITY    FAIR      56  22  27 NW9       29.92S

$$
NMZ407-409-411-412-251100-
SOUTHERN DESERTS

CITY           SKY/WX    TMP DP  RH WIND       PRES   REMARKS
DEMING         FAIR      69  22  16 W9        29.85S
LAS CRUCES     FAIR      69  18  14 W18       29.84S
HOLLOMAN AFB   FAIR      67  19  16 S6        29.81R
T OR C         FAIR      71  20  14 W8        29.82R

$$
NMZ519>523-251100-
CENTRAL VALLEYS/CENTRAL HIGHLANDS

CITY           SKY/WX    TMP DP  RH WIND       PRES   REMARKS
ALBUQUERQUE    FAIR      70  21  15 SE5       29.81S
DOUBLE EAGLE   FAIR      64  25  23 W12       29.83F
MORIARTY ARPT  FAIR      66  24  20 W16       29.86F
CLINES CORNERS FAIR      60  22  23 W20       29.90F
BELEN          FAIR      65  20  18 W9        29.82S
SOCORRO        NOT AVBL

$$
NMZ524>526-539-540-251100-
SOUTHCENTRAL MOUNTAINS

CITY           SKY/WX    TMP DP  RH WIND       PRES   REMARKS
RUIDOSO        NOT AVBL

$$
NMZ527>531-251100-
NORTHEAST HIGHLANDS/NORTHEAST PLAINS

CITY           SKY/WX    TMP DP  RH WIND       PRES   REMARKS
LAS VEGAS      FAIR      62  22  21 CALM      29.85S
RATON          FAIR      49  32  52 NW7       29.77R
CLAYTON        FAIR      60  35  39 W15       29.65R

$$
NMZ532>537-251100-
EASTCENTRAL PLAINS

CITY           SKY/WX    TMP DP  RH WIND       PRES   REMARKS
SANTA ROSA     FAIR      62  25  24 SW8       29.72S
TUCUMCARI      FAIR      60  38  43 W7        29.62S
CANNON AFB     FAIR      62  36  38 W9        29.70R
CLOVIS AIRPORT FAIR      64  36  34 W10       29.68R

$$
NMZ028-029-538-251100-
SOUTHEAST PLAINS

CITY           SKY/WX    TMP DP  RH WIND       PRES   REMARKS
ROSWELL        FAIR      74  21  13 W14       29.67R
ARTESIA        FAIR      72  21  15 W14       29.69R
CARLSBAD       FAIR      73  26  17 W14       29.66S
HOBBS          FAIR      57  43  58 SW8       29.72S


$$




USA.gov is the U.S. government's official web portal to all federal, state and local government web resources and services.